RUSSARO Weather Reports


time (UTC)temp
F
wind
direction
speed
knots
gust
knots
rain 1hr
in
rain 24hr
in
rain mn
in
humidity
%
barometer
mb
20260504050714 46 74 2.6 3.5 0.00 0.00 0.00 54 1005.6
20260504044713 46 59 2.6 3.5 0.00 0.00 0.00 57 1005.9
20260504042714 44 40 2.6 4.3 0.00 0.00 0.00 69 1006.0
20260504040714 43 1 2.6 3.5 0.00 0.00 0.00 70 1006.2
20260504034714 42 349 2.6 4.3 0.00 0.00 0.00 81 1006.3
20260504032714 41 345 5.2 5.2 0.00 0.00 0.00 83 1006.4
20260504030714 40 337 4.3 5.2 0.00 0.00 0.00 85 1006.5
20260504024713 39 320 3.5 5.2 0.00 0.00 0.00 84 1006.7
20260504022713 40 8 5.2 7.8 0.00 0.00 0.00 82 1006.9
20260504020713 40 8 9.6 10.4 0.00 0.00 0.00 83 1007.0
20260504014714 40 334 8.7 9.6 0.00 0.00 0.00 82 1007.2
20260504012713 41 335 9.6 10.4 0.00 0.00 0.00 82 1007.4
20260504010714 41 331 9.6 10.4 0.00 0.00 0.00 82 1007.4
20260504004713 41 332 9.6 10.4 0.00 0.00 0.00 83 1007.5
20260504002714 41 317 8.7 9.6 0.00 0.00 0.00 83 1007.7
20260504000714 42 315 8.7 9.6 0.00 0.00 0.00 82 1007.8
20260503234713 42 316 9.6 11.3 0.00 0.00 0.00 81 1007.9
20260503232713 43 308 10.4 11.3 0.00 0.00 0.00 81 1007.9
20260503230713 43 311 9.6 10.4 0.00 0.00 0.00 81 1008.0
20260503224713 43 316 10.4 11.3 0.00 0.00 0.00 79 1008.0
20260503222713 43 310 11.3 13.0 0.00 0.00 0.00 80 1008.3
20260503220713 43 311 11.3 13.0 0.00 0.00 0.00 80 1008.2
20260503214712 43 308 11.3 13.0 0.00 0.00 0.00 80 1008.4
20260503212712 42 298 11.3 13.0 0.00 0.00 0.00 84 1008.5
20260503210713 42 297 13.0 13.9 0.00 0.00 0.00 86 1008.5
20260503204712 42 290 13.0 13.9 0.00 0.00 0.00 86 1008.5
20260503202712 43 293 10.4 11.3 0.00 0.00 0.00 84 1008.5
20260503200712 43 296 9.6 11.3 0.00 0.00 0.00 82 1008.5
20260503194712 43 295 11.3 11.3 0.00 0.00 0.00 84 1008.6
20260503192711 43 292 11.3 12.2 0.00 0.00 0.00 82 1008.6
20260503190712 44 303 13.0 13.9 0.00 0.00 0.00 81 1008.6
20260503184712 44 292 13.9 15.6 0.00 0.00 0.00 83 1008.7
20260503182711 44 287 13.0 14.8 0.00 0.00 0.00 83 1008.7
20260503180712 45 299 12.2 13.0 0.00 0.00 0.00 80 1008.4
20260503174712 45 298 12.2 13.9 0.00 0.00 0.00 79 1008.4
20260503172718 46 288 13.0 13.9 0.00 0.00 0.00 78 1008.4
20260503170711 46 295 13.0 13.9 0.00 0.00 0.00 79 1008.5
20260503150711 47 273 16.5 19.1 0.00 0.00 0.00 81 1009.0
20260503130710 51 254 15.6 16.5 0.00 0.00 0.00 75 1009.2
20260503110710 51 304 13.0 14.8 0.00 0.00 0.00 71 1009.0
20260503080710 50 276 9.6 11.3 0.00 0.00 0.00 77 1008.8
20260503072710 46 285 7.8 12.2 0.00 0.00 0.00 85 1008.5
20260503070709 49 302 5.2 6.1 0.00 0.00 0.00 80 1008.1
20260503054709 44 285 12.2 13.0 0.00 0.00 0.00 87 1007.7